"SCET";"TARGET";"ELECTRON_DENSITY";"ERROR_FLAG";"ELECTRON_DENSITY_ERROR";"FREQ_FCE";"MEASURED_VALUE";"MEASURED_ITEM";"FREQ_PLASMA";"FREQ_UPPER_HYBRID";"FREQ_R_EQUALS_ZERO";"FREQ_L_EQUALS_ZERO";"ORBIT_NUMBER";"SATURN_RADIUS";"SATURN_IAU_LONGITUDE";"SATURN_SLS4_S_LONGITUDE";"SATURN_SLS4_N_LONGITUDE";"SATURN_SLS5_S_LONGITUDE";"SATURN_SLS5_N_LONGITUDE";"SATURN_LOCAL_TIME";"SATURN_KRONOGRAPHIC_LATITUDE";"SATURN_MAGNETIC_LATITUDE";"SATURN_L";"SATURN_L_OFFSET";"SATURN_SOLAR_EQUATORIAL_X";"SATURN_SOLAR_EQUATORIAL_Y";"SATURN_SOLAR_EQUATORIAL_Z";"SATURN_ALTITUDE";"ENCELADUS_ENCOUNTER_NUMBER";"ENCELADUS_RADIUS";"ENCELADUS_COROTATIONAL_X";"ENCELADUS_COROTATIONAL_Y";"ENCELADUS_COROTATIONAL_Z";"ENCELADUS_TRUE_ANOMALY";"ENCELADUS_PERIAPSIS_TIME";"JUPITER_RADIUS";"JUPITER_SYSTEMIII_LONGITUDE";"JUPITER_MAGNETIC_LATITUDE";"JUPITER_MAGNETIC_LOCAL_TIME";"JUPITER_L";"IO_PHASE";"EARTH_RADIUS";"EARTH_MAGNETIC_LATITUDE";"EARTH_LOCAL_TIME";"EARTH_L"
"[UTC]";"[0=Saturn, 1=Enceladus, 2=Jupiter, 3=Earth]";"[cm-3]";"[0=automated, 1=manual]";"[normalized density error]";"[Hz]";"[Hz]";"[0=upper hybrid frequency, 1=plasma frequency cutoff]";"[Hz]";"[Hz]";"[Hz]";"[Hz}";"[0, A, B, C, 3, 4, ... , 292, 293]";"[Rs where 1Rs=60268km]";"[degrees]";"[degrees]";"[degrees]";"[degrees]";"[degrees]";"[hours]";"[degrees]";"[degrees where offset=2293km north]";"[Rs where 1Rs=60268km]";"[Rs where 1Rs=60268km and offset=2293km north]";"[Rs where 1Rs=60268km]";"[Rs where 1Rs=60268km]";"[Rs where 1Rs=60268km]";"[km where ellipsoid a,b=60268km and c=54364km]";"[E0, E1, E2, ... , E21, E22]";"[Renc where 1Renc=252.1km]";"[Renc where 1Renc=252.1km]";"[Renc where 1Renc=252.1km]";"[Renc where 1Renc=252.1km]";"[degrees]";"[UTC]";"[Rj where 1Rj=71492km]";"[degrees]";"[degrees using JRM09 model]";"[hours using JRM09 model]";"[Rj where 1Rj=71492km]";"[degrees]";"[Re where 1Re=6378.1366km]";"[degrees]";"[hours]";"[Re where 1Re=6378.1366km]"
2007-10-23T22:55:54.938Z;0;1.2540e+01;0;     0.075;  1460.172;  31827.455; 0;  31793.943;  31827.455;  32532.410;  31072.238; 51;   7.001; 185.425; 184.165; 156.098; 175.886; 161.110;  20.248;   3.983;   3.672;   7.035;   6.991;  -3.877;   5.809;   0.486;;;;;;;;;;;;;;;;;;
2007-10-23T22:56:10.938Z;0;1.3610e+01;0;     0.096;  1460.172;  33164.969; 0;  33132.809;  33164.969;  33870.938;  32410.766; 51;   6.999; 185.554; 184.292; 156.229; 176.014; 161.238;  20.249;   3.981;   3.671;   7.033;   6.989;  -3.878;   5.806;   0.486;;;;;;;;;;;;;;;;;;
2007-10-23T22:56:18.938Z;0;1.3150e+01;0;     0.102;  1460.172;  32592.855; 0;  32560.131;  32592.855;  33298.402;  31838.229; 51;   6.998; 185.619; 184.355; 156.294; 176.079; 161.302;  20.250;   3.981;   3.670;   7.031;   6.988;  -3.878;   5.804;   0.486;;;;;;;;;;;;;;;;;;
2007-10-23T22:56:26.938Z;0;1.2220e+01;0;     0.068;  1460.172;  31420.576; 0;  31386.629;  31420.576;  32125.205;  30665.033; 51;   6.997; 185.684; 184.419; 156.360; 176.143; 161.366;  20.251;   3.980;   3.670;   7.030;   6.987;  -3.879;   5.803;   0.486;;;;;;;;;;;;;;;;;;
2007-10-23T22:56:34.938Z;0;1.3750e+01;0;     0.101;  1460.172;  33326.051; 0;  33294.047;  33326.051;  34032.137;  32571.965; 51;   6.995; 185.748; 184.482; 156.425; 176.208; 161.430;  20.251;   3.980;   3.669;   7.029;   6.986;  -3.879;   5.801;   0.486;;;;;;;;;;;;;;;;;;
2007-10-23T22:56:42.938Z;0;1.3870e+01;0;     0.106;  1460.172;  33472.191; 0;  33440.328;  33472.191;  34178.383;  32718.211; 51;   6.994; 185.813; 184.546; 156.490; 176.272; 161.494;  20.252;   3.979;   3.668;   7.028;   6.985;  -3.880;   5.800;   0.485;;;;;;;;;;;;;;;;;;
2007-10-23T22:56:58.937Z;0;1.4340e+01;0;     0.108;  1460.172;  34033.895; 0;  34002.559;  34033.895;  34740.480;  33280.309; 51;   6.992; 185.943; 184.673; 156.621; 176.401; 161.622;  20.253;   3.978;   3.667;   7.026;   6.983;  -3.881;   5.796;   0.485;;;;;;;;;;;;;;;;;;
2007-10-23T22:57:06.937Z;0;1.4780e+01;0;     0.117;  1463.252;  34555.801; 0;  34524.805;  34555.801;  35264.184;  33800.934; 51;   6.991; 186.007; 184.737; 156.686; 176.466; 161.686;  20.254;   3.978;   3.667;   7.025;   6.981;  -3.881;   5.795;   0.485;;;;;;;;;;;;;;;;;;
2007-10-23T22:57:14.937Z;0;1.3950e+01;0;     0.131;  1463.252;  33568.023; 0;  33536.117;  33568.023;  34275.723;  32812.469; 51;   6.990; 186.072; 184.800; 156.752; 176.530; 161.750;  20.255;   3.977;   3.666;   7.024;   6.980;  -3.882;   5.793;   0.485;;;;;;;;;;;;;;;;;;
2007-10-23T22:57:22.937Z;0;1.4650e+01;0;     0.105;  1463.252;  34398.977; 0;  34367.840;  34398.977;  35107.254;  33644.000; 51;   6.989; 186.137; 184.864; 156.817; 176.595; 161.814;  20.255;   3.977;   3.665;   7.023;   6.979;  -3.882;   5.792;   0.485;;;;;;;;;;;;;;;;;;
2007-10-23T22:57:30.937Z;0;1.4410e+01;0;     0.111;  1463.252;  34122.652; 0;  34091.266;  34122.652;  34830.738;  33367.488; 51;   6.988; 186.201; 184.927; 156.882; 176.660; 161.878;  20.256;   3.976;   3.665;   7.022;   6.978;  -3.883;   5.790;   0.485;;;;;;;;;;;;;;;;;;
2007-10-23T22:57:46.937Z;0;1.4520e+01;0;     0.108;  1463.252;  34251.879; 0;  34220.609;  34251.879;  34960.055;  33496.805; 51;   6.986; 186.331; 185.054; 157.013; 176.789; 162.006;  20.258;   3.975;   3.664;   7.020;   6.976;  -3.884;   5.787;   0.484;;;;;;;;;;;;;;;;;;
2007-10-23T22:57:54.937Z;0;1.4530e+01;0;     0.111;  1463.252;  34257.695; 0;  34226.430;  34257.695;  34965.875;  33502.625; 51;   6.985; 186.395; 185.118; 157.078; 176.853; 162.070;  20.258;   3.974;   3.663;   7.018;   6.975;  -3.884;   5.785;   0.484;;;;;;;;;;;;;;;;;;
2007-10-23T22:58:02.937Z;0;1.4330e+01;0;     0.102;  1467.004;  34025.137; 0;  33993.496;  34025.137;  34734.910;  33267.906; 51;   6.984; 186.460; 185.181; 157.143; 176.918; 162.134;  20.259;   3.974;   3.662;   7.017;   6.974;  -3.884;   5.784;   0.484;;;;;;;;;;;;;;;;;;
2007-10-23T22:58:10.937Z;0;1.4140e+01;0;     0.112;  1467.004;  33796.941; 0;  33765.086;  33796.941;  34506.555;  33039.551; 51;   6.983; 186.525; 185.245; 157.209; 176.983; 162.198;  20.260;   3.973;   3.662;   7.016;   6.973;  -3.885;   5.782;   0.484;;;;;;;;;;;;;;;;;;
2007-10-23T22:58:18.937Z;0;1.4050e+01;0;     0.094;  1467.004;  33696.926; 0;  33664.977;  33696.926;  34406.469;  32939.465; 51;   6.982; 186.589; 185.308; 157.274; 177.047; 162.261;  20.260;   3.973;   3.661;   7.015;   6.972;  -3.885;   5.780;   0.484;;;;;;;;;;;;;;;;;;
2007-10-23T22:58:34.937Z;0;1.4060e+01;0;     0.120;  1467.004;  33702.148; 0;  33670.203;  33702.148;  34411.695;  32944.691; 51;   6.979; 186.718; 185.435; 157.405; 177.177; 162.389;  20.262;   3.972;   3.660;   7.013;   6.970;  -3.886;   5.777;   0.483;;;;;;;;;;;;;;;;;;
2007-10-23T22:58:42.937Z;0;1.3870e+01;0;     0.125;  1467.004;  33473.508; 0;  33441.348;  33473.508;  34182.891;  32715.887; 51;   6.978; 186.783; 185.499; 157.470; 177.242; 162.453;  20.262;   3.971;   3.659;   7.012;   6.969;  -3.887;   5.776;   0.483;;;;;;;;;;;;;;;;;;
2007-10-23T22:58:50.937Z;0;1.4190e+01;0;     0.110;  1467.004;  33859.172; 0;  33827.375;  33859.172;  34568.832;  33101.828; 51;   6.977; 186.848; 185.562; 157.535; 177.306; 162.517;  20.263;   3.970;   3.659;   7.011;   6.968;  -3.887;   5.774;   0.483;;;;;;;;;;;;;;;;;;
2007-10-23T22:58:58.937Z;0;1.3720e+01;0;     0.110;  1467.004;  33295.961; 0;  33263.629;  33295.961;  34005.215;  32538.211; 51;   6.976; 186.912; 185.626; 157.600; 177.371; 162.580;  20.264;   3.970;   3.658;   7.010;   6.966;  -3.888;   5.773;   0.483;;;;;;;;;;;;;;;;;;
2007-10-23T22:59:06.937Z;0;1.4100e+01;0;     0.103;  1468.684;  33746.555; 0;  33714.582;  33746.555;  34456.918;  32988.234; 51;   6.975; 186.977; 185.689; 157.666; 177.436; 162.644;  20.265;   3.969;   3.658;   7.009;   6.965;  -3.888;   5.771;   0.483;;;;;;;;;;;;;;;;;;
2007-10-23T22:59:22.936Z;0;1.3820e+01;0;     0.094;  1468.684;  33413.918; 0;  33381.625;  33413.918;  34124.043;  32655.359; 51;   6.973; 187.106; 185.816; 157.796; 177.565; 162.771;  20.266;   3.968;   3.656;   7.006;   6.963;  -3.889;   5.768;   0.483;;;;;;;;;;;;;;;;;;
2007-10-23T22:59:30.936Z;0;1.3720e+01;0;     0.106;  1468.684;  33299.930; 0;  33267.527;  33299.930;  34009.973;  32541.287; 51;   6.972; 187.171; 185.879; 157.861; 177.630; 162.835;  20.267;   3.968;   3.656;   7.005;   6.962;  -3.889;   5.766;   0.482;;;;;;;;;;;;;;;;;;
2007-10-23T22:59:38.936Z;0;1.3880e+01;0;     0.115;  1468.684;  33487.906; 0;  33455.684;  33487.906;  34198.086;  32729.400; 51;   6.971; 187.236; 185.943; 157.927; 177.695; 162.898;  20.267;   3.967;   3.655;   7.004;   6.961;  -3.890;   5.765;   0.482;;;;;;;;;;;;;;;;;;
2007-10-23T22:59:46.936Z;0;1.3430e+01;0;     0.089;  1468.684;  32941.172; 0;  32908.414;  32941.172;  33650.949;  32182.266; 51;   6.970; 187.300; 186.006; 157.992; 177.760; 162.962;  20.268;   3.967;   3.655;   7.003;   6.960;  -3.890;   5.763;   0.482;;;;;;;;;;;;;;;;;;
2007-10-23T22:59:54.936Z;0;1.3100e+01;0;     0.087;  1468.684;  32539.078; 0;  32505.916;  32539.078;  33248.551;  31779.867; 51;   6.969; 187.365; 186.070; 158.057; 177.825; 163.026;  20.269;   3.966;   3.654;   7.002;   6.959;  -3.891;   5.761;   0.482;;;;;;;;;;;;;;;;;;
2007-10-23T23:00:10.936Z;0;1.3200e+01;0;     0.111;  1473.248;  32654.768; 0;  32621.518;  32654.768;  33366.457;  31893.209; 51;   6.966; 187.494; 186.197; 158.188; 177.953; 163.154;  20.270;   3.965;   3.653;   7.000;   6.957;  -3.892;   5.758;   0.482;;;;;;;;;;;;;;;;;;
2007-10-23T23:00:18.936Z;0;1.3070e+01;0;     0.110;  1473.248;  32500.934; 0;  32467.525;  32500.934;  33212.504;  31739.258; 51;   6.965; 187.559; 186.260; 158.253; 178.016; 163.219;  20.271;   3.964;   3.652;   6.999;   6.956;  -3.892;   5.757;   0.482;;;;;;;;;;;;;;;;;;
2007-10-23T23:00:26.936Z;0;1.3270e+01;0;     0.090;  1473.248;  32740.521; 0;  32707.357;  32740.521;  33452.277;  31979.027; 51;   6.964; 187.623; 186.324; 158.318; 178.080; 163.284;  20.271;   3.964;   3.652;   6.998;   6.955;  -3.893;   5.755;   0.481;;;;;;;;;;;;;;;;;;
2007-10-23T23:00:34.936Z;0;1.3180e+01;0;     0.113;  1473.248;  32632.031; 0;  32598.758;  32632.031;  33343.703;  31870.455; 51;   6.963; 187.688; 186.387; 158.383; 178.143; 163.349;  20.272;   3.963;   3.651;   6.997;   6.954;  -3.893;   5.753;   0.481;;;;;;;;;;;;;;;;;;
2007-10-23T23:00:42.936Z;0;1.3930e+01;0;     0.084;  1473.248;  33545.121; 0;  33512.754;  33545.121;  34257.473;  32784.227; 51;   6.962; 187.752; 186.451; 158.448; 178.206; 163.414;  20.273;   3.963;   3.650;   6.996;   6.953;  -3.894;   5.752;   0.481;;;;;;;;;;;;;;;;;;
2007-10-23T23:00:58.936Z;0;1.3500e+01;0;     0.090;  1473.248;  33032.438; 0;  32999.566;  33032.438;  33744.414;  32271.164; 51;   6.960; 187.882; 186.577; 158.579; 178.333; 163.544;  20.274;   3.962;   3.649;   6.993;   6.950;  -3.894;   5.749;   0.481;;;;;;;;;;;;;;;;;;
2007-10-23T23:01:06.936Z;0;1.3480e+01;0;     0.111;  1481.060;  32998.609; 0;  32965.355;  32998.609;  33714.203;  32233.143; 51;   6.959; 187.946; 186.641; 158.644; 178.397; 163.609;  20.275;   3.961;   3.649;   6.992;   6.949;  -3.895;   5.747;   0.481;;;;;;;;;;;;;;;;;;
2007-10-23T23:01:14.936Z;0;1.2890e+01;0;     0.097;  1481.060;  32278.504; 0;  32244.508;  32278.504;  32993.539;  31512.480; 51;   6.958; 188.011; 186.704; 158.709; 178.460; 163.674;  20.276;   3.961;   3.648;   6.991;   6.948;  -3.895;   5.745;   0.481;;;;;;;;;;;;;;;;;;
2007-10-23T23:01:22.936Z;0;1.3300e+01;0;     0.087;  1481.060;  32783.695; 0;  32750.223;  32783.695;  33499.125;  32018.064; 51;   6.957; 188.075; 186.768; 158.775; 178.523; 163.739;  20.276;   3.960;   3.647;   6.990;   6.947;  -3.896;   5.744;   0.480;;;;;;;;;;;;;;;;;;
2007-10-23T23:01:30.935Z;0;1.3560e+01;0;     0.089;  1481.060;  33100.113; 0;  33066.961;  33100.113;  33815.781;  32334.723; 51;   6.956; 188.140; 186.831; 158.840; 178.587; 163.804;  20.277;   3.959;   3.647;   6.989;   6.946;  -3.896;   5.742;   0.480;;;;;;;;;;;;;;;;;;
2007-10-23T23:01:46.935Z;0;1.3580e+01;0;     0.112;  1481.060;  33119.441; 0;  33086.309;  33119.441;  33835.125;  32354.064; 51;   6.954; 188.269; 186.958; 158.970; 178.713; 163.934;  20.278;   3.958;   3.645;   6.987;   6.944;  -3.897;   5.739;   0.480;;;;;;;;;;;;;;;;;;
2007-10-23T23:01:54.935Z;0;1.3860e+01;0;     0.084;  1481.060;  33458.781; 0;  33425.984;  33458.781;  34174.719;  32693.658; 51;   6.953; 188.334; 187.021; 159.035; 178.776; 163.999;  20.279;   3.958;   3.645;   6.986;   6.943;  -3.898;   5.737;   0.480;;;;;;;;;;;;;;;;;;
2007-10-23T23:02:02.935Z;0;1.3760e+01;0;     0.094;  1489.012;  33348.477; 0;  33315.219;  33348.477;  34068.043;  32579.029; 51;   6.951; 188.398; 187.085; 159.100; 178.840; 164.064;  20.280;   3.957;   3.644;   6.985;   6.942;  -3.898;   5.736;   0.480;;;;;;;;;;;;;;;;;;
2007-10-23T23:02:10.935Z;0;1.3730e+01;0;     0.090;  1489.012;  33303.129; 0;  33269.824;  33303.129;  34022.660;  32533.648; 51;   6.950; 188.463; 187.148; 159.166; 178.903; 164.129;  20.281;   3.957;   3.644;   6.984;   6.941;  -3.899;   5.734;   0.480;;;;;;;;;;;;;;;;;;
2007-10-23T23:02:18.935Z;0;1.3930e+01;0;     0.086;  1489.012;  33547.711; 0;  33514.648;  33547.711;  34267.426;  32778.414; 51;   6.949; 188.527; 187.212; 159.231; 178.966; 164.194;  20.281;   3.956;   3.643;   6.983;   6.940;  -3.899;   5.733;   0.479;;;;;;;;;;;;;;;;;;
2007-10-23T23:02:34.935Z;0;1.3530e+01;0;     0.088;  1489.012;  33061.422; 0;  33027.875;  33061.422;  33780.770;  32291.758; 51;   6.947; 188.656; 187.338; 159.361; 179.092; 164.325;  20.283;   3.955;   3.642;   6.980;   6.938;  -3.900;   5.729;   0.479;;;;;;;;;;;;;;;;;;
2007-10-23T23:02:42.935Z;0;1.3720e+01;0;     0.085;  1489.012;  33291.359; 0;  33258.043;  33291.359;  34010.883;  32521.869; 51;   6.946; 188.721; 187.402; 159.426; 179.155; 164.390;  20.283;   3.954;   3.641;   6.979;   6.936;  -3.900;   5.728;   0.479;;;;;;;;;;;;;;;;;;
2007-10-23T23:02:50.935Z;0;1.3680e+01;0;     0.094;  1489.012;  33246.398; 0;  33213.039;  33246.398;  33965.887;  32476.875; 51;   6.945; 188.785; 187.465; 159.492; 179.218; 164.455;  20.284;   3.954;   3.641;   6.978;   6.935;  -3.901;   5.726;   0.479;;;;;;;;;;;;;;;;;;
2007-10-23T23:02:58.935Z;0;1.3250e+01;0;     0.086;  1489.012;  32717.096; 0;  32683.195;  32717.096;  33436.180;  31947.166; 51;   6.944; 188.850; 187.528; 159.557; 179.281; 164.520;  20.285;   3.953;   3.640;   6.977;   6.934;  -3.901;   5.725;   0.479;;;;;;;;;;;;;;;;;;
2007-10-23T23:03:06.935Z;0;1.3420e+01;0;     0.085;  1486.016;  32924.312; 0;  32890.762;  32924.312;  33642.160;  32156.143; 51;   6.943; 188.914; 187.592; 159.622; 179.345; 164.585;  20.285;   3.953;   3.639;   6.976;   6.933;  -3.902;   5.723;   0.479;;;;;;;;;;;;;;;;;;
2007-10-23T23:03:22.935Z;0;1.3410e+01;0;     0.084;  1486.016;  32917.578; 0;  32884.020;  32917.578;  33635.422;  32149.404; 51;   6.941; 189.044; 187.719; 159.752; 179.471; 164.716;  20.287;   3.952;   3.638;   6.974;   6.931;  -3.903;   5.720;   0.478;;;;;;;;;;;;;;;;;;
2007-10-23T23:03:30.935Z;0;1.3850e+01;0;     0.087;  1486.016;  33458.250; 0;  33425.234;  33458.250;  34176.500;  32690.482; 51;   6.940; 189.108; 187.782; 159.817; 179.534; 164.781;  20.288;   3.951;   3.638;   6.973;   6.930;  -3.903;   5.718;   0.478;;;;;;;;;;;;;;;;;;
2007-10-23T23:03:38.935Z;0;1.3880e+01;0;     0.097;  1486.016;  33484.973; 0;  33451.984;  33484.973;  34203.242;  32717.225; 51;   6.939; 189.173; 187.845; 159.882; 179.597; 164.846;  20.288;   3.950;   3.637;   6.972;   6.929;  -3.904;   5.717;   0.478;;;;;;;;;;;;;;;;;;
2007-10-23T23:03:46.935Z;0;1.4120e+01;0;     0.085;  1486.016;  33779.766; 0;  33747.062;  33779.766;  34498.250;  33012.234; 51;   6.938; 189.237; 187.909; 159.948; 179.659; 164.912;  20.289;   3.950;   3.636;   6.971;   6.928;  -3.904;   5.715;   0.478;;;;;;;;;;;;;;;;;;
2007-10-23T23:03:54.934Z;0;1.3300e+01;0;     0.083;  1486.016;  32779.789; 0;  32746.088;  32779.789;  33497.523;  32011.510; 51;   6.936; 189.302; 187.972; 160.013; 179.722; 164.977;  20.290;   3.949;   3.636;   6.970;   6.927;  -3.904;   5.713;   0.478;;;;;;;;;;;;;;;;;;
2007-10-23T23:04:10.934Z;0;1.3100e+01;0;     0.121;  1487.528;  32542.186; 0;  32508.170;  32542.186;  33260.441;  31772.912; 51;   6.934; 189.431; 188.099; 160.143; 179.848; 165.108;  20.291;   3.948;   3.635;   6.967;   6.925;  -3.905;   5.710;   0.477;;;;;;;;;;;;;;;;;;
2007-10-23T23:04:18.934Z;0;1.3080e+01;0;     0.158;  1487.528;  32510.721; 0;  32476.672;  32510.721;  33228.953;  31741.424; 51;   6.933; 189.495; 188.162; 160.208; 179.911; 165.173;  20.292;   3.948;   3.634;   6.966;   6.924;  -3.906;   5.709;   0.477;;;;;;;;;;;;;;;;;;
2007-10-23T23:04:26.934Z;0;1.3190e+01;0;     0.128;  1487.528;  32644.602; 0;  32610.693;  32644.602;  33362.938;  31875.408; 51;   6.932; 189.560; 188.225; 160.273; 179.974; 165.238;  20.293;   3.947;   3.633;   6.965;   6.923;  -3.906;   5.707;   0.477;;;;;;;;;;;;;;;;;;
2007-10-23T23:04:34.934Z;0;1.3130e+01;0;     0.124;  1487.528;  32572.625; 0;  32538.641;  32572.625;  33290.906;  31803.377; 51;   6.931; 189.624; 188.289; 160.338; 180.037; 165.304;  20.293;   3.946;   3.633;   6.964;   6.921;  -3.907;   5.705;   0.477;;;;;;;;;;;;;;;;;;
2007-10-23T23:04:42.934Z;0;1.4670e+01;0;     0.099;  1487.528;  34429.215; 0;  34397.066;  34429.215;  35148.871;  33661.340; 51;   6.930; 189.689; 188.352; 160.404; 180.100; 165.369;  20.294;   3.946;   3.632;   6.963;   6.920;  -3.907;   5.704;   0.477;;;;;;;;;;;;;;;;;;
2007-10-23T23:04:58.934Z;0;1.3720e+01;0;     0.102;  1487.528;  33294.121; 0;  33260.875;  33294.121;  34012.953;  32525.426; 51;   6.928; 189.818; 188.479; 160.534; 180.225; 165.500;  20.295;   3.945;   3.631;   6.961;   6.918;  -3.908;   5.701;   0.477;;;;;;;;;;;;;;;;;;
2007-10-23T23:05:06.934Z;0;1.3290e+01;0;     0.132;  1494.556;  32776.422; 0;  32742.330;  32776.422;  33498.133;  32003.578; 51;   6.927; 189.882; 188.542; 160.599; 180.288; 165.565;  20.296;   3.944;   3.630;   6.960;   6.917;  -3.908;   5.699;   0.476;;;;;;;;;;;;;;;;;;
2007-10-23T23:05:14.934Z;0;1.3690e+01;0;     0.124;  1494.556;  33262.383; 0;  33228.789;  33262.383;  33984.469;  32489.912; 51;   6.926; 189.947; 188.606; 160.664; 180.350; 165.631;  20.297;   3.944;   3.630;   6.959;   6.916;  -3.909;   5.697;   0.476;;;;;;;;;;;;;;;;;;
2007-10-23T23:05:22.934Z;0;1.3850e+01;0;     0.158;  1494.556;  33450.613; 0;  33417.207;  33450.613;  34172.840;  32678.285; 51;   6.925; 190.011; 188.669; 160.729; 180.413; 165.696;  20.297;   3.943;   3.629;   6.958;   6.915;  -3.909;   5.696;   0.476;;;;;;;;;;;;;;;;;;
2007-10-23T23:05:30.934Z;0;1.2970e+01;0;     0.166;  1494.556;  32374.807; 0;  32340.291;  32374.807;  33096.203;  31601.645; 51;   6.924; 190.076; 188.732; 160.794; 180.476; 165.761;  20.298;   3.943;   3.628;   6.956;   6.914;  -3.910;   5.694;   0.476;;;;;;;;;;;;;;;;;;
2007-10-23T23:05:46.934Z;0;1.2680e+01;0;     0.162;  1494.556;  32006.605; 0;  31971.691;  32006.605;  32727.701;  31233.146; 51;   6.921; 190.205; 188.859; 160.924; 180.601; 165.892;  20.300;   3.941;   3.627;   6.954;   6.912;  -3.911;   5.691;   0.476;;;;;;;;;;;;;;;;;;
2007-10-23T23:05:54.934Z;0;1.3760e+01;0;     0.128;  1494.556;  33349.051; 0;  33315.543;  33349.051;  34071.203;  32576.646; 51;   6.920; 190.269; 188.922; 160.990; 180.664; 165.958;  20.300;   3.941;   3.627;   6.953;   6.911;  -3.911;   5.689;   0.476;;;;;;;;;;;;;;;;;;
2007-10-23T23:06:02.934Z;0;1.4110e+01;0;     0.093;  1514.100;  33765.668; 0;  33731.703;  33765.668;  34497.246;  32983.148; 51;   6.919; 190.333; 188.985; 161.055; 180.726; 166.023;  20.301;   3.940;   3.626;   6.952;   6.910;  -3.912;   5.688;   0.475;;;;;;;;;;;;;;;;;;
2007-10-23T23:06:10.933Z;0;1.4570e+01;0;     0.084;  1514.100;  34311.398; 0;  34277.977;  34311.398;  35043.383;  33529.285; 51;   6.918; 190.398; 189.049; 161.120; 180.789; 166.089;  20.302;   3.940;   3.625;   6.951;   6.909;  -3.912;   5.686;   0.475;;;;;;;;;;;;;;;;;;
2007-10-23T23:06:18.933Z;0;1.5070e+01;0;     0.078;  1514.100;  34893.527; 0;  34860.660;  34893.527;  35625.930;  34111.832; 51;   6.917; 190.462; 189.112; 161.185; 180.851; 166.154;  20.302;   3.939;   3.625;   6.950;   6.908;  -3.913;   5.685;   0.475;;;;;;;;;;;;;;;;;;
2007-10-23T23:06:34.933Z;0;1.4870e+01;0;     0.099;  1514.100;  34656.766; 0;  34623.676;  34656.766;  35389.000;  33874.902; 51;   6.915; 190.591; 189.239; 161.315; 180.976; 166.286;  20.304;   3.938;   3.623;   6.948;   6.905;  -3.913;   5.681;   0.475;;;;;;;;;;;;;;;;;;
2007-10-23T23:06:42.933Z;0;1.4930e+01;0;     0.094;  1514.100;  34735.914; 0;  34702.898;  34735.914;  35468.207;  33954.105; 51;   6.914; 190.656; 189.302; 161.380; 181.039; 166.351;  20.305;   3.937;   3.623;   6.947;   6.904;  -3.914;   5.680;   0.475;;;;;;;;;;;;;;;;;;
2007-10-23T23:06:50.933Z;0;1.4640e+01;0;     0.085;  1514.100;  34390.684; 0;  34357.336;  34390.684;  35122.727;  33608.625; 51;   6.913; 190.720; 189.365; 161.445; 181.101; 166.417;  20.305;   3.937;   3.622;   6.946;   6.903;  -3.914;   5.678;   0.475;;;;;;;;;;;;;;;;;;
2007-10-23T23:06:58.933Z;0;1.5060e+01;0;     0.088;  1514.100;  34882.230; 0;  34849.355;  34882.230;  35614.625;  34100.527; 51;   6.912; 190.785; 189.428; 161.510; 181.164; 166.482;  20.306;   3.936;   3.622;   6.945;   6.902;  -3.915;   5.677;   0.474;;;;;;;;;;;;;;;;;;
2007-10-23T23:07:06.933Z;0;1.5220e+01;0;     0.086;  1521.548;  35072.043; 0;  35039.023;  35072.043;  35808.055;  34286.508; 51;   6.911; 190.849; 189.492; 161.575; 181.226; 166.548;  20.307;   3.936;   3.621;   6.943;   6.901;  -3.915;   5.675;   0.474;;;;;;;;;;;;;;;;;;
2007-10-23T23:07:22.933Z;0;1.5060e+01;0;     0.094;  1521.548;  34877.199; 0;  34843.992;  34877.199;  35613.070;  34091.523; 51;   6.909; 190.978; 189.618; 161.705; 181.351; 166.679;  20.308;   3.935;   3.620;   6.941;   6.899;  -3.916;   5.672;   0.474;;;;;;;;;;;;;;;;;;
2007-10-23T23:07:30.933Z;0;1.4620e+01;0;     0.090;  1521.548;  34370.613; 0;  34336.918;  34370.613;  35106.117;  33584.570; 51;   6.908; 191.042; 189.682; 161.770; 181.413; 166.745;  20.309;   3.934;   3.619;   6.940;   6.898;  -3.917;   5.670;   0.474;;;;;;;;;;;;;;;;;;
2007-10-23T23:07:38.933Z;0;1.4560e+01;0;     0.087;  1521.548;  34303.711; 0;  34269.949;  34303.711;  35039.168;  33517.621; 51;   6.906; 191.107; 189.745; 161.835; 181.476; 166.811;  20.310;   3.933;   3.618;   6.939;   6.897;  -3.917;   5.669;   0.474;;;;;;;;;;;;;;;;;;
2007-10-23T23:07:46.933Z;0;1.4310e+01;0;     0.070;  1521.548;  34009.109; 0;  33975.055;  34009.109;  34744.348;  33222.797; 51;   6.905; 191.171; 189.808; 161.901; 181.538; 166.876;  20.310;   3.933;   3.618;   6.938;   6.896;  -3.917;   5.667;   0.474;;;;;;;;;;;;;;;;;;
2007-10-23T23:07:54.933Z;0;1.4430e+01;0;     0.075;  1521.548;  34146.387; 0;  34112.469;  34146.387;  34881.727;  33360.180; 51;   6.904; 191.236; 189.871; 161.966; 181.600; 166.942;  20.311;   3.932;   3.617;   6.937;   6.895;  -3.918;   5.665;   0.473;;;;;;;;;;;;;;;;;;
2007-10-23T23:08:10.933Z;0;1.4440e+01;0;     0.074;  1520.204;  34152.363; 0;  34118.512;  34152.363;  34887.082;  33366.875; 51;   6.902; 191.364; 189.998; 162.096; 181.725; 167.074;  20.312;   3.931;   3.616;   6.935;   6.893;  -3.919;   5.662;   0.473;;;;;;;;;;;;;;;;;;
2007-10-23T23:08:18.933Z;0;1.4430e+01;0;     0.077;  1520.204;  34151.539; 0;  34117.688;  34151.539;  34886.254;  33366.051; 51;   6.901; 191.429; 190.061; 162.161; 181.787; 167.139;  20.313;   3.931;   3.615;   6.934;   6.892;  -3.919;   5.661;   0.473;;;;;;;;;;;;;;;;;;
2007-10-23T23:08:26.933Z;0;1.3600e+01;0;     0.179;  1520.204;  33156.043; 0;  33121.176;  33156.043;  33889.996;  32369.793; 51;   6.900; 191.493; 190.124; 162.226; 181.849; 167.205;  20.314;   3.930;   3.615;   6.933;   6.890;  -3.920;   5.659;   0.473;;;;;;;;;;;;;;;;;;
2007-10-23T23:08:34.932Z;0;1.4390e+01;0;     0.077;  1520.204;  34101.289; 0;  34067.387;  34101.289;  34835.969;  33315.766; 51;   6.899; 191.558; 190.188; 162.291; 181.912; 167.271;  20.314;   3.929;   3.614;   6.931;   6.889;  -3.920;   5.657;   0.473;;;;;;;;;;;;;;;;;;